{"data":{"norad_id":64246,"epoch":"2026-05-24T22:50:20.592672Z","epoch_age_seconds":72449,"freshness":"FRESH","line1":"1 64246U 25119P   26144.95162723  .00016746  00000+0  61662-3 0  9999","line2":"2 64246  43.0023 236.2744 0000997 288.3015  71.7728 15.27583509 55845","mean_motion":15.27583509,"eccentricity":9.97e-5,"inclination_deg":43.0023,"raan_deg":236.2744,"arg_perigee_deg":288.3015,"mean_anomaly_deg":71.7728,"bstar":0.00061662,"rev_number":5584,"period_min":94.266532174249,"perigee_km":482.3545296452,"apogee_km":483.72264805762,"semimajor_km":6861.1755888514,"source":"CELESTRAK","updated_at":"2026-05-25T13:38:20.353992Z"}}